Location: Allen Lane School
(37.8198°N, 89.7382°W)
Time: 13:31:08
(UTC+00:00)

Cosmos 44 - Pass Details

Date: 03 July 2022
Orbit: 595 x 766 km, 65.1° (Epoch: 07 August)

Event Time Altitude Azimuth Distance (km) Brightness Sun altitude
Exits shadow 07:44:28 19° 294° (WNW) 1,529 5.0 -24.7°
Maximum altitude 07:45:24 20° 311° (NW) 1,472 5.1 -24.7°
Drops below altitude 10° 07:48:44 10° 359° (N) 1,994 6.5 -24.4°
Sets 07:51:30 0° 17° (NNE) 2,880 7.8 -24.1°
